星链-31131 (STARLINK-31131 )

导读

STARLINK-31131是美国SpaceX公司星链(Starlink)卫星互联网星座中的一员,于2023年12月29日发射入轨。作为星链低轨星座的组成部分,它运行在近地轨道,依托星链星座组网,旨在为全球提供高速宽带互联网接入服务,重点改善偏远、网络基础设施匮乏区域的联网覆盖,是SpaceX推进全球卫星互联网部署的其中一颗卫星。

基本信息
目录编号:
58673
目录名称:
STARLINK-31131
国际标识:
2023-211G
轨道中心:
EARTH
卫星名称:
星链-31131
卫星全名:
星链-31131 (STARLINK-31131 )
卫星状态:
在轨 (已飞行902 天)
发射日期:
2023-12-29 UTC
国别 :
美国 (US)
星等 :
--
轨道信息
数据来源 国际轨道数据 AOE轨道数据
星历时间 2026-06-16T19:03:33+0800
1天前
查看轨道信息
2026-06-17T06:00:00+0800
1天前
查看轨道信息
半长轴 6861.189km 6861.196km
偏心率 0.0002286 0.0002006
轨道倾角 43.005° 43.001°
近地点辐角 279.087° 277.385°
升交点赤经 236.679° 234.107°
平近点角 80.972° 72.536°
近地点 481.483km 481.682km
远地点 484.621km 484.436km
周期 94.267分钟 94.267分钟
每日圈数 15.275793 15.27577
详细信息
固有亮度:
5
最大亮度:
0.3
卫星平台:
Starlink v2.0 mini
覆盖范围:
全球
运营商:
太空探索技术公司
运营商所在国:
美国
制造商(研发单位):
太空探索技术公司
制造商所在国:
美国
使用方式:
暂无
卫星简介
星链(Starlink)计划是由太空探索技术公司(SpaceX)提出的一个巨型低轨卫星互联网星座项目,计划在2019年至2024年间在太空搭建由约1.2万颗卫星组成的“星链”网络,其中1584颗将部署在地球上空550千米处的近地轨道,并从2020年开始工作。该卫星仍在工作。
2D轨道图
3D轨道图
轨道高度分析图
轨道倾角分析图
轨道综合分析图
查看轨道综合分析图